GFSNE_prec_pwat_048.txt.gz
Precipitable_Water
0.80 0.80 0.77 0.75 0.76 0.73 0.70 0.66 0.57 0.48 0.46 0.48 0.45 0.47 0.45 0.43 0.41 0.39 0.37 0.36 0.35 0.33 0.30 0.27 0.26 0.23 0.20 0.19 0.19 0.19 0.21 0.22 0.24 0.25 0.27 0.29 0.30 0.28
0.81 0.77 0.78 0.78 0.76 0.74 0.68 0.63 0.59 0.51 0.42 0.46 0.42 0.40 0.39 0.37 0.36 0.37 0.36 0.35 0.34 0.32 0.30 0.27 0.25 0.21 0.19 0.18 0.18 0.18 0.20 0.23 0.24 0.25 0.26 0.27 0.30 0.31
0.79 0.74 0.77 0.81 0.75 0.69 0.63 0.59 0.54 0.50 0.41 0.40 0.42 0.39 0.36 0.36 0.35 0.37 0.37 0.35 0.33 0.30 0.28 0.25 0.24 0.20 0.18 0.18 0.17 0.19 0.21 0.23 0.23 0.25 0.26 0.27 0.28 0.30
0.71 0.75 0.74 0.75 0.69 0.67 0.62 0.56 0.51 0.49 0.42 0.35 0.36 0.33 0.32 0.33 0.33 0.32 0.32 0.32 0.30 0.28 0.26 0.25 0.22 0.20 0.20 0.18 0.19 0.20 0.22 0.24 0.24 0.24 0.25 0.26 0.28 0.29
0.77 0.74 0.72 0.71 0.66 0.64 0.58 0.53 0.50 0.47 0.43 0.39 0.34 0.34 0.34 0.35 0.32 0.32 0.31 0.30 0.29 0.27 0.26 0.24 0.22 0.22 0.22 0.21 0.21 0.21 0.22 0.25 0.26 0.27 0.27 0.28 0.28 0.29
0.74 0.70 0.70 0.67 0.60 0.55 0.50 0.45 0.44 0.43 0.44 0.40 0.38 0.33 0.34 0.35 0.34 0.30 0.28 0.28 0.26 0.27 0.25 0.24 0.23 0.21 0.23 0.23 0.23 0.23 0.24 0.26 0.27 0.29 0.28 0.28 0.28 0.27
0.67 0.67 0.63 0.57 0.53 0.47 0.41 0.38 0.38 0.37 0.36 0.37 0.33 0.32 0.31 0.31 0.31 0.31 0.28 0.27 0.27 0.26 0.24 0.23 0.22 0.24 0.22 0.21 0.21 0.23 0.23 0.24 0.26 0.27 0.27 0.27 0.27 0.29
0.58 0.55 0.51 0.45 0.41 0.39 0.38 0.37 0.36 0.33 0.31 0.31 0.28 0.29 0.30 0.32 0.33 0.31 0.29 0.26 0.23 0.27 0.24 0.22 0.24 0.21 0.20 0.22 0.22 0.24 0.23 0.23 0.24 0.25 0.26 0.26 0.27 0.29
0.47 0.42 0.38 0.36 0.35 0.33 0.33 0.33 0.34 0.35 0.36 0.36 0.34 0.32 0.31 0.33 0.34 0.32 0.32 0.29 0.26 0.26 0.25 0.21 0.23 0.20 0.23 0.23 0.22 0.22 0.22 0.23 0.25 0.27 0.27 0.27 0.28 0.29
0.37 0.36 0.34 0.32 0.33 0.33 0.33 0.31 0.30 0.30 0.31 0.35 0.36 0.36 0.37 0.38 0.38 0.36 0.33 0.31 0.30 0.27 0.28 0.21 0.23 0.22 0.23 0.22 0.22 0.22 0.21 0.25 0.25 0.27 0.28 0.30 0.28 0.30
0.34 0.32 0.31 0.30 0.31 0.33 0.31 0.29 0.28 0.27 0.30 0.31 0.31 0.32 0.36 0.39 0.39 0.36 0.31 0.28 0.24 0.27 0.28 0.25 0.22 0.22 0.22 0.20 0.20 0.21 0.23 0.24 0.24 0.25 0.26 0.26 0.28 0.30
0.30 0.28 0.27 0.24 0.25 0.25 0.25 0.26 0.24 0.26 0.30 0.34 0.34 0.34 0.31 0.34 0.38 0.40 0.36 0.28 0.28 0.27 0.28 0.26 0.23 0.23 0.19 0.19 0.19 0.22 0.21 0.21 0.22 0.25 0.27 0.28 0.31 0.31
0.22 0.21 0.21 0.20 0.18 0.15 0.14 0.15 0.16 0.21 0.21 0.22 0.25 0.34 0.36 0.36 0.33 0.36 0.37 0.33 0.29 0.26 0.29 0.27 0.24 0.23 0.21 0.18 0.19 0.20 0.21 0.21 0.22 0.26 0.28 0.29 0.31 0.30
0.18 0.18 0.18 0.17 0.14 0.15 0.18 0.17 0.15 0.18 0.20 0.20 0.21 0.23 0.27 0.35 0.37 0.37 0.35 0.34 0.31 0.28 0.30 0.29 0.26 0.24 0.21 0.17 0.16 0.20 0.19 0.21 0.23 0.22 0.27 0.30 0.30 0.30
0.18 0.18 0.15 0.14 0.17 0.20 0.22 0.24 0.25 0.23 0.22 0.24 0.24 0.25 0.27 0.35 0.39 0.37 0.38 0.35 0.33 0.32 0.31 0.32 0.28 0.25 0.22 0.18 0.18 0.17 0.17 0.20 0.24 0.25 0.28 0.29 0.27 0.35
0.17 0.16 0.16 0.18 0.20 0.20 0.20 0.21 0.26 0.27 0.28 0.26 0.27 0.29 0.32 0.32 0.32 0.35 0.32 0.31 0.31 0.30 0.32 0.30 0.28 0.25 0.21 0.21 0.20 0.18 0.20 0.21 0.25 0.27 0.27 0.27 0.33 0.35
0.17 0.17 0.17 0.18 0.15 0.15 0.15 0.17 0.18 0.23 0.24 0.30 0.29 0.30 0.32 0.31 0.29 0.33 0.31 0.31 0.28 0.26 0.26 0.29 0.29 0.26 0.24 0.23 0.19 0.19 0.21 0.24 0.28 0.26 0.26 0.27 0.34 0.34
0.17 0.15 0.15 0.15 0.14 0.13 0.13 0.14 0.16 0.17 0.22 0.24 0.33 0.30 0.29 0.29 0.29 0.31 0.31 0.29 0.27 0.27 0.27 0.27 0.25 0.23 0.23 0.23 0.23 0.20 0.24 0.26 0.25 0.25 0.28 0.27 0.29 0.34
0.17 0.15 0.14 0.13 0.13 0.13 0.13 0.13 0.14 0.17 0.20 0.24 0.28 0.30 0.29 0.29 0.29 0.29 0.29 0.29 0.27 0.27 0.28 0.27 0.24 0.21 0.18 0.15 0.20 0.26 0.23 0.25 0.25 0.24 0.26 0.28 0.28 0.32
0.15 0.14 0.13 0.13 0.12 0.12 0.12 0.12 0.13 0.16 0.18 0.20 0.24 0.30 0.29 0.29 0.28 0.27 0.29 0.27 0.27 0.27 0.26 0.26 0.22 0.21 0.19 0.17 0.17 0.19 0.24 0.25 0.25 0.23 0.23 0.27 0.33 0.36
0.15 0.14 0.12 0.12 0.12 0.12 0.12 0.13 0.13 0.13 0.17 0.20 0.23 0.25 0.28 0.29 0.28 0.28 0.28 0.29 0.28 0.27 0.25 0.24 0.23 0.24 0.22 0.20 0.16 0.16 0.25 0.32 0.30 0.25 0.25 0.23 0.24 0.26
0.15 0.13 0.11 0.11 0.11 0.11 0.12 0.12 0.12 0.12 0.13 0.18 0.21 0.23 0.25 0.26 0.27 0.27 0.27 0.27 0.27 0.27 0.26 0.26 0.24 0.22 0.20 0.16 0.15 0.18 0.23 0.30 0.31 0.29 0.30 0.26 0.22 0.19
0.13 0.12 0.11 0.11 0.11 0.11 0.11 0.11 0.12 0.12 0.12 0.15 0.19 0.21 0.22 0.22 0.24 0.27 0.27 0.28 0.28 0.27 0.26 0.24 0.22 0.21 0.19 0.17 0.16 0.18 0.21 0.27 0.29 0.26 0.27 0.29 0.26 0.26

GFSNE_prec_pwat_051.txt.gz
Precipitable_Water
0.89 0.90 0.89 0.82 0.79 0.77 0.74 0.71 0.63 0.54 0.51 0.55 0.51 0.54 0.51 0.48 0.46 0.46 0.44 0.42 0.41 0.39 0.37 0.36 0.35 0.33 0.30 0.26 0.24 0.21 0.20 0.20 0.22 0.23 0.25 0.26 0.27 0.27
0.92 0.82 0.77 0.75 0.72 0.76 0.78 0.74 0.67 0.57 0.47 0.51 0.48 0.47 0.45 0.43 0.42 0.42 0.39 0.39 0.39 0.37 0.36 0.35 0.33 0.31 0.27 0.24 0.21 0.20 0.20 0.20 0.22 0.24 0.25 0.26 0.27 0.29
0.87 0.77 0.78 0.75 0.74 0.75 0.75 0.69 0.63 0.59 0.47 0.45 0.45 0.44 0.42 0.39 0.37 0.38 0.39 0.39 0.38 0.37 0.35 0.35 0.32 0.29 0.25 0.22 0.22 0.21 0.20 0.21 0.21 0.23 0.25 0.25 0.26 0.27
0.84 0.80 0.74 0.75 0.71 0.71 0.67 0.63 0.61 0.55 0.46 0.37 0.41 0.42 0.41 0.41 0.40 0.37 0.35 0.36 0.35 0.35 0.35 0.33 0.30 0.28 0.26 0.24 0.23 0.22 0.21 0.21 0.21 0.23 0.26 0.27 0.27 0.28
0.77 0.70 0.71 0.70 0.66 0.65 0.62 0.56 0.50 0.49 0.46 0.42 0.38 0.42 0.42 0.44 0.40 0.42 0.38 0.36 0.38 0.35 0.33 0.32 0.29 0.28 0.25 0.25 0.24 0.24 0.23 0.22 0.22 0.24 0.27 0.27 0.28 0.28
0.72 0.70 0.72 0.68 0.63 0.56 0.47 0.45 0.45 0.41 0.41 0.39 0.38 0.37 0.39 0.40 0.40 0.35 0.36 0.37 0.35 0.34 0.32 0.30 0.28 0.27 0.26 0.26 0.27 0.25 0.24 0.23 0.24 0.27 0.27 0.28 0.29 0.29
0.67 0.71 0.67 0.61 0.50 0.46 0.44 0.42 0.40 0.38 0.36 0.33 0.32 0.32 0.30 0.29 0.30 0.33 0.33 0.35 0.35 0.34 0.31 0.30 0.29 0.27 0.25 0.25 0.24 0.24 0.22 0.23 0.23 0.23 0.26 0.25 0.25 0.27
0.63 0.60 0.52 0.47 0.41 0.40 0.38 0.38 0.38 0.34 0.32 0.32 0.31 0.30 0.30 0.31 0.32 0.34 0.36 0.33 0.30 0.38 0.33 0.30 0.31 0.26 0.25 0.25 0.23 0.23 0.25 0.22 0.22 0.24 0.25 0.24 0.27 0.28
0.49 0.46 0.40 0.40 0.40 0.36 0.34 0.33 0.33 0.34 0.34 0.32 0.28 0.28 0.28 0.30 0.33 0.32 0.34 0.34 0.35 0.38 0.34 0.25 0.27 0.25 0.26 0.25 0.24 0.25 0.24 0.22 0.23 0.24 0.24 0.25 0.28 0.29
0.40 0.39 0.37 0.36 0.35 0.33 0.31 0.29 0.29 0.29 0.30 0.31 0.32 0.31 0.32 0.31 0.33 0.32 0.31 0.34 0.37 0.39 0.34 0.26 0.27 0.26 0.29 0.26 0.26 0.25 0.23 0.23 0.23 0.24 0.24 0.23 0.24 0.26
0.38 0.37 0.34 0.30 0.29 0.25 0.22 0.18 0.16 0.14 0.17 0.19 0.21 0.22 0.23 0.29 0.31 0.36 0.29 0.30 0.28 0.30 0.35 0.28 0.27 0.28 0.28 0.26 0.26 0.24 0.24 0.22 0.23 0.22 0.22 0.23 0.25 0.28
0.34 0.30 0.26 0.23 0.21 0.20 0.17 0.16 0.15 0.16 0.16 0.14 0.15 0.17 0.18 0.19 0.20 0.27 0.37 0.30 0.28 0.27 0.33 0.30 0.27 0.27 0.22 0.24 0.24 0.22 0.21 0.21 0.21 0.22 0.22 0.25 0.27 0.29
0.25 0.22 0.20 0.21 0.20 0.19 0.22 0.22 0.22 0.23 0.23 0.23 0.21 0.21 0.19 0.22 0.22 0.27 0.33 0.33 0.31 0.27 0.36 0.32 0.26 0.25 0.23 0.22 0.24 0.24 0.22 0.20 0.20 0.21 0.22 0.25 0.29 0.31
0.21 0.20 0.21 0.20 0.21 0.23 0.22 0.22 0.22 0.24 0.24 0.23 0.22 0.21 0.22 0.24 0.25 0.28 0.32 0.35 0.38 0.36 0.36 0.33 0.26 0.24 0.24 0.22 0.21 0.22 0.20 0.21 0.21 0.21 0.25 0.28 0.30 0.28
0.22 0.21 0.20 0.22 0.23 0.23 0.21 0.18 0.18 0.18 0.19 0.18 0.19 0.21 0.26 0.29 0.31 0.31 0.34 0.35 0.37 0.36 0.34 0.33 0.29 0.27 0.27 0.23 0.21 0.19 0.18 0.19 0.22 0.23 0.26 0.28 0.26 0.30
0.21 0.21 0.22 0.23 0.23 0.21 0.18 0.17 0.16 0.15 0.16 0.15 0.16 0.20 0.26 0.30 0.31 0.32 0.30 0.31 0.30 0.30 0.32 0.33 0.32 0.29 0.26 0.24 0.21 0.20 0.20 0.18 0.22 0.25 0.28 0.26 0.28 0.35
0.23 0.22 0.21 0.20 0.18 0.18 0.17 0.16 0.15 0.13 0.13 0.14 0.15 0.18 0.23 0.31 0.31 0.32 0.31 0.29 0.27 0.25 0.27 0.32 0.33 0.31 0.29 0.25 0.21 0.21 0.19 0.20 0.24 0.27 0.25 0.24 0.28 0.33
0.23 0.21 0.20 0.19 0.18 0.17 0.16 0.14 0.14 0.12 0.12 0.13 0.15 0.17 0.21 0.26 0.29 0.30 0.30 0.28 0.26 0.26 0.27 0.29 0.29 0.27 0.25 0.25 0.26 0.21 0.20 0.21 0.25 0.26 0.25 0.24 0.26 0.32
0.21 0.20 0.19 0.18 0.17 0.16 0.15 0.14 0.12 0.12 0.12 0.12 0.14 0.17 0.20 0.24 0.27 0.28 0.29 0.28 0.26 0.26 0.28 0.29 0.28 0.24 0.21 0.17 0.21 0.24 0.20 0.22 0.22 0.23 0.24 0.24 0.26 0.30
0.21 0.19 0.18 0.17 0.16 0.15 0.14 0.12 0.11 0.11 0.11 0.11 0.12 0.17 0.19 0.22 0.23 0.27 0.27 0.26 0.26 0.27 0.27 0.28 0.27 0.25 0.22 0.18 0.19 0.20 0.24 0.21 0.26 0.25 0.23 0.25 0.30 0.35
0.21 0.19 0.18 0.16 0.15 0.14 0.12 0.11 0.10 0.10 0.11 0.11 0.11 0.15 0.18 0.20 0.22 0.23 0.27 0.27 0.27 0.27 0.25 0.25 0.28 0.27 0.26 0.23 0.19 0.16 0.18 0.26 0.29 0.27 0.25 0.23 0.22 0.25
0.19 0.18 0.17 0.15 0.14 0.12 0.11 0.10 0.09 0.09 0.10 0.11 0.11 0.11 0.16 0.20 0.20 0.21 0.23 0.24 0.25 0.26 0.26 0.28 0.30 0.26 0.23 0.20 0.17 0.15 0.17 0.23 0.31 0.32 0.30 0.28 0.22 0.18
0.18 0.16 0.15 0.13 0.12 0.11 0.11 0.10 0.09 0.10 0.10 0.10 0.11 0.10 0.12 0.17 0.20 0.20 0.21 0.23 0.23 0.25 0.27 0.27 0.27 0.25 0.22 0.20 0.18 0.16 0.17 0.21 0.26 0.27 0.28 0.31 0.29 0.27

GFSNE_prec_pwat_057.txt.gz
Precipitable_Water
1.02 1.01 0.93 0.91 0.92 0.84 0.85 0.82 0.68 0.59 0.62 0.71 0.67 0.69 0.68 0.63 0.59 0.58 0.55 0.53 0.51 0.50 0.50 0.49 0.49 0.48 0.46 0.44 0.42 0.40 0.39 0.37 0.34 0.29 0.28 0.28 0.28 0.29
0.98 0.92 0.91 0.90 0.82 0.86 0.87 0.79 0.73 0.69 0.62 0.70 0.62 0.65 0.65 0.61 0.57 0.52 0.49 0.49 0.49 0.49 0.49 0.47 0.46 0.46 0.46 0.44 0.44 0.43 0.40 0.41 0.36 0.31 0.29 0.28 0.27 0.28
0.92 0.91 0.88 0.83 0.84 0.77 0.75 0.72 0.70 0.72 0.64 0.63 0.62 0.62 0.56 0.49 0.48 0.47 0.48 0.46 0.45 0.47 0.49 0.48 0.47 0.46 0.46 0.50 0.48 0.44 0.44 0.41 0.36 0.33 0.30 0.28 0.27 0.27
0.89 0.87 0.80 0.82 0.80 0.77 0.71 0.66 0.67 0.69 0.62 0.54 0.57 0.49 0.43 0.43 0.43 0.41 0.41 0.43 0.42 0.44 0.44 0.45 0.45 0.44 0.45 0.51 0.48 0.47 0.46 0.41 0.37 0.33 0.29 0.28 0.27 0.26
0.90 0.83 0.84 0.79 0.70 0.68 0.67 0.65 0.68 0.67 0.63 0.55 0.43 0.43 0.42 0.41 0.37 0.37 0.36 0.36 0.37 0.37 0.36 0.36 0.38 0.40 0.41 0.40 0.46 0.46 0.43 0.41 0.38 0.34 0.31 0.27 0.26 0.26
0.84 0.79 0.80 0.74 0.69 0.67 0.69 0.66 0.66 0.60 0.50 0.39 0.35 0.35 0.35 0.34 0.34 0.31 0.30 0.33 0.31 0.33 0.32 0.33 0.34 0.34 0.35 0.38 0.42 0.45 0.47 0.42 0.36 0.37 0.32 0.28 0.26 0.27
0.81 0.74 0.74 0.71 0.69 0.72 0.69 0.64 0.59 0.45 0.36 0.34 0.32 0.31 0.29 0.28 0.28 0.31 0.29 0.29 0.29 0.29 0.26 0.26 0.27 0.27 0.28 0.33 0.38 0.43 0.47 0.40 0.39 0.36 0.31 0.29 0.28 0.23
0.70 0.71 0.70 0.69 0.70 0.70 0.63 0.61 0.46 0.37 0.35 0.32 0.29 0.27 0.26 0.25 0.24 0.22 0.22 0.21 0.17 0.24 0.24 0.22 0.29 0.30 0.28 0.29 0.33 0.38 0.40 0.41 0.39 0.33 0.30 0.30 0.26 0.24
0.67 0.67 0.65 0.67 0.67 0.63 0.56 0.45 0.40 0.37 0.33 0.28 0.22 0.21 0.22 0.22 0.23 0.22 0.21 0.21 0.19 0.20 0.20 0.16 0.21 0.20 0.25 0.33 0.33 0.37 0.41 0.39 0.32 0.32 0.31 0.28 0.27 0.26
0.65 0.66 0.65 0.64 0.61 0.48 0.42 0.37 0.33 0.28 0.25 0.26 0.26 0.26 0.26 0.28 0.28 0.26 0.25 0.25 0.23 0.22 0.25 0.18 0.20 0.19 0.24 0.35 0.36 0.39 0.39 0.33 0.33 0.33 0.30 0.29 0.27 0.24
0.63 0.63 0.61 0.53 0.46 0.41 0.36 0.30 0.26 0.25 0.29 0.29 0.29 0.28 0.27 0.26 0.28 0.28 0.24 0.24 0.19 0.19 0.23 0.22 0.20 0.23 0.29 0.31 0.34 0.35 0.34 0.33 0.34 0.31 0.28 0.27 0.26 0.23
0.57 0.50 0.45 0.42 0.40 0.36 0.30 0.27 0.25 0.27 0.26 0.24 0.24 0.25 0.25 0.24 0.25 0.26 0.25 0.22 0.23 0.20 0.22 0.22 0.24 0.28 0.22 0.27 0.33 0.33 0.32 0.33 0.30 0.28 0.27 0.25 0.23 0.21
0.43 0.43 0.42 0.39 0.32 0.30 0.29 0.28 0.29 0.28 0.24 0.23 0.24 0.23 0.23 0.22 0.23 0.23 0.23 0.23 0.22 0.22 0.28 0.28 0.24 0.26 0.27 0.27 0.27 0.28 0.29 0.28 0.28 0.27 0.25 0.23 0.23 0.24
0.43 0.40 0.35 0.31 0.30 0.31 0.31 0.32 0.29 0.25 0.25 0.23 0.22 0.21 0.20 0.21 0.21 0.22 0.22 0.22 0.24 0.27 0.31 0.32 0.27 0.27 0.27 0.26 0.25 0.27 0.26 0.27 0.26 0.23 0.22 0.23 0.24 0.24
0.40 0.35 0.31 0.30 0.32 0.35 0.33 0.29 0.26 0.27 0.24 0.22 0.21 0.21 0.22 0.21 0.21 0.20 0.20 0.21 0.25 0.31 0.33 0.33 0.31 0.31 0.30 0.26 0.24 0.24 0.24 0.26 0.25 0.22 0.22 0.23 0.23 0.24
0.33 0.31 0.34 0.37 0.36 0.31 0.27 0.27 0.27 0.25 0.24 0.22 0.21 0.22 0.21 0.19 0.18 0.18 0.16 0.16 0.20 0.25 0.32 0.34 0.32 0.32 0.29 0.28 0.27 0.24 0.26 0.23 0.24 0.22 0.22 0.23 0.25 0.25
0.39 0.38 0.35 0.30 0.27 0.27 0.27 0.27 0.26 0.25 0.23 0.23 0.21 0.19 0.18 0.16 0.16 0.15 0.14 0.15 0.17 0.22 0.26 0.31 0.33 0.33 0.32 0.29 0.25 0.26 0.26 0.24 0.24 0.22 0.22 0.20 0.23 0.25
0.35 0.30 0.28 0.29 0.28 0.27 0.25 0.25 0.26 0.25 0.23 0.21 0.19 0.18 0.15 0.14 0.13 0.11 0.13 0.14 0.15 0.19 0.25 0.29 0.29 0.28 0.28 0.29 0.31 0.26 0.27 0.24 0.23 0.22 0.22 0.20 0.20 0.25
0.31 0.31 0.29 0.27 0.26 0.27 0.28 0.27 0.24 0.24 0.21 0.19 0.17 0.15 0.13 0.12 0.10 0.09 0.10 0.13 0.15 0.18 0.23 0.28 0.28 0.26 0.22 0.19 0.26 0.31 0.24 0.23 0.22 0.20 0.21 0.23 0.22 0.23
0.33 0.30 0.29 0.31 0.30 0.28 0.26 0.24 0.23 0.20 0.18 0.17 0.15 0.13 0.11 0.10 0.08 0.08 0.09 0.11 0.15 0.17 0.21 0.26 0.27 0.26 0.24 0.21 0.23 0.26 0.28 0.23 0.21 0.18 0.18 0.24 0.26 0.28
0.32 0.30 0.30 0.29 0.27 0.25 0.23 0.22 0.20 0.17 0.15 0.14 0.12 0.11 0.09 0.09 0.08 0.09 0.09 0.10 0.14 0.17 0.19 0.21 0.25 0.30 0.31 0.30 0.24 0.23 0.24 0.26 0.24 0.19 0.20 0.22 0.22 0.22
0.29 0.28 0.27 0.26 0.25 0.23 0.21 0.19 0.16 0.14 0.12 0.11 0.09 0.09 0.09 0.09 0.08 0.09 0.10 0.09 0.13 0.17 0.19 0.22 0.25 0.28 0.27 0.24 0.23 0.22 0.22 0.21 0.23 0.24 0.27 0.27 0.23 0.19
0.27 0.26 0.25 0.23 0.21 0.19 0.16 0.14 0.12 0.11 0.10 0.09 0.08 0.09 0.09 0.09 0.09 0.10 0.10 0.10 0.11 0.17 0.18 0.20 0.22 0.25 0.26 0.25 0.25 0.22 0.21 0.19 0.19 0.19 0.24 0.30 0.30 0.29

GFSNE_prec_pwat_063.txt.gz
Precipitable_Water
1.17 1.23 1.18 1.14 1.15 1.13 1.08 0.98 0.81 0.65 0.65 0.77 0.74 0.77 0.79 0.79 0.77 0.73 0.73 0.74 0.70 0.65 0.57 0.53 0.51 0.49 0.49 0.50 0.50 0.50 0.52 0.52 0.51 0.52 0.53 0.55 0.56 0.55
1.20 1.20 1.18 1.14 1.13 1.13 1.03 0.96 0.88 0.80 0.67 0.74 0.72 0.75 0.74 0.73 0.72 0.74 0.73 0.70 0.62 0.54 0.50 0.48 0.46 0.45 0.45 0.45 0.46 0.48 0.48 0.49 0.49 0.47 0.49 0.49 0.53 0.55
1.23 1.22 1.21 1.20 1.14 1.11 1.06 0.97 0.88 0.82 0.68 0.70 0.74 0.74 0.73 0.70 0.70 0.73 0.71 0.60 0.51 0.46 0.43 0.40 0.39 0.39 0.39 0.38 0.39 0.39 0.39 0.40 0.41 0.45 0.45 0.45 0.49 0.53
1.21 1.19 1.17 1.19 1.11 1.10 1.00 0.93 0.87 0.80 0.70 0.66 0.70 0.69 0.66 0.67 0.69 0.64 0.52 0.46 0.42 0.38 0.35 0.34 0.33 0.32 0.32 0.33 0.33 0.32 0.32 0.33 0.34 0.36 0.38 0.39 0.43 0.47
1.21 1.13 1.14 1.14 1.08 1.00 0.98 0.89 0.85 0.78 0.70 0.66 0.62 0.68 0.67 0.66 0.57 0.52 0.44 0.38 0.33 0.30 0.28 0.27 0.28 0.30 0.29 0.28 0.27 0.27 0.27 0.29 0.30 0.30 0.32 0.33 0.36 0.41
1.22 1.20 1.14 1.08 0.99 0.98 0.90 0.85 0.78 0.77 0.66 0.67 0.62 0.58 0.59 0.59 0.51 0.43 0.32 0.29 0.28 0.29 0.30 0.30 0.32 0.32 0.31 0.29 0.28 0.26 0.25 0.23 0.26 0.31 0.33 0.33 0.35 0.41
1.15 1.13 1.07 1.02 0.99 0.96 0.88 0.80 0.77 0.68 0.62 0.61 0.60 0.55 0.53 0.46 0.40 0.33 0.28 0.29 0.29 0.30 0.32 0.32 0.32 0.31 0.29 0.29 0.28 0.26 0.24 0.24 0.22 0.28 0.29 0.31 0.35 0.40
1.07 1.05 1.01 0.99 0.96 0.94 0.86 0.82 0.73 0.68 0.59 0.58 0.54 0.50 0.46 0.40 0.36 0.31 0.28 0.27 0.27 0.36 0.32 0.31 0.33 0.30 0.30 0.29 0.28 0.26 0.26 0.25 0.25 0.27 0.31 0.35 0.36 0.38
1.04 1.00 0.97 0.96 0.93 0.84 0.81 0.73 0.67 0.63 0.62 0.57 0.51 0.46 0.39 0.37 0.34 0.29 0.29 0.31 0.31 0.32 0.32 0.30 0.32 0.29 0.30 0.30 0.28 0.27 0.28 0.28 0.30 0.30 0.35 0.36 0.37 0.39
1.02 1.00 0.98 0.91 0.83 0.82 0.72 0.66 0.59 0.57 0.55 0.53 0.48 0.42 0.39 0.36 0.34 0.32 0.33 0.34 0.33 0.33 0.35 0.28 0.31 0.27 0.29 0.30 0.29 0.27 0.28 0.30 0.32 0.35 0.36 0.37 0.38 0.38
0.98 0.96 0.93 0.83 0.78 0.73 0.64 0.60 0.56 0.55 0.55 0.50 0.42 0.37 0.34 0.33 0.32 0.33 0.33 0.31 0.29 0.30 0.32 0.30 0.28 0.27 0.27 0.26 0.28 0.27 0.26 0.28 0.30 0.33 0.36 0.37 0.36 0.34
0.90 0.89 0.82 0.74 0.71 0.67 0.62 0.58 0.54 0.51 0.46 0.39 0.35 0.32 0.32 0.33 0.32 0.36 0.33 0.29 0.31 0.29 0.33 0.28 0.24 0.24 0.22 0.24 0.26 0.27 0.27 0.29 0.30 0.32 0.34 0.34 0.33 0.30
0.79 0.74 0.68 0.66 0.64 0.61 0.58 0.54 0.50 0.45 0.38 0.33 0.30 0.32 0.34 0.35 0.36 0.32 0.31 0.32 0.30 0.29 0.30 0.27 0.24 0.23 0.24 0.23 0.22 0.27 0.28 0.28 0.31 0.33 0.33 0.32 0.28 0.26
0.67 0.63 0.62 0.63 0.61 0.57 0.53 0.49 0.42 0.37 0.34 0.33 0.34 0.36 0.35 0.33 0.30 0.32 0.34 0.32 0.31 0.28 0.27 0.25 0.23 0.23 0.22 0.21 0.21 0.26 0.27 0.30 0.31 0.30 0.29 0.28 0.26 0.25
0.63 0.62 0.62 0.59 0.55 0.51 0.47 0.40 0.37 0.37 0.37 0.38 0.36 0.34 0.31 0.33 0.35 0.33 0.31 0.30 0.28 0.25 0.23 0.23 0.24 0.23 0.24 0.22 0.23 0.24 0.25 0.28 0.29 0.27 0.28 0.28 0.26 0.25
0.60 0.59 0.57 0.53 0.50 0.45 0.42 0.43 0.42 0.41 0.37 0.34 0.33 0.34 0.34 0.33 0.31 0.30 0.28 0.25 0.23 0.21 0.22 0.21 0.22 0.21 0.21 0.25 0.27 0.25 0.27 0.26 0.28 0.28 0.28 0.28 0.27 0.27
0.57 0.53 0.48 0.45 0.44 0.44 0.43 0.41 0.38 0.36 0.35 0.34 0.33 0.32 0.31 0.30 0.28 0.27 0.24 0.22 0.20 0.18 0.18 0.17 0.17 0.18 0.19 0.24 0.24 0.25 0.27 0.28 0.30 0.29 0.27 0.25 0.27 0.27
0.50 0.47 0.45 0.43 0.42 0.40 0.37 0.36 0.36 0.35 0.34 0.33 0.32 0.30 0.28 0.27 0.25 0.23 0.21 0.19 0.18 0.16 0.14 0.13 0.13 0.13 0.16 0.21 0.29 0.26 0.28 0.28 0.29 0.30 0.29 0.25 0.24 0.25
0.45 0.43 0.41 0.39 0.38 0.37 0.35 0.34 0.32 0.32 0.32 0.30 0.28 0.27 0.26 0.24 0.21 0.20 0.18 0.17 0.15 0.13 0.12 0.10 0.11 0.12 0.12 0.12 0.24 0.31 0.27 0.28 0.28 0.27 0.28 0.26 0.23 0.23
0.41 0.38 0.36 0.35 0.33 0.32 0.31 0.30 0.29 0.29 0.28 0.26 0.25 0.24 0.22 0.20 0.18 0.16 0.15 0.13 0.11 0.09 0.09 0.10 0.11 0.13 0.13 0.14 0.18 0.23 0.32 0.30 0.28 0.26 0.25 0.26 0.25 0.24
0.36 0.34 0.33 0.31 0.30 0.29 0.28 0.28 0.27 0.25 0.24 0.23 0.21 0.19 0.17 0.15 0.13 0.11 0.10 0.09 0.09 0.09 0.08 0.09 0.10 0.13 0.17 0.20 0.19 0.21 0.28 0.32 0.32 0.27 0.26 0.23 0.21 0.21
0.32 0.30 0.29 0.29 0.28 0.27 0.26 0.25 0.23 0.20 0.17 0.15 0.13 0.11 0.11 0.10 0.09 0.09 0.09 0.09 0.09 0.09 0.09 0.10 0.11 0.12 0.15 0.17 0.18 0.22 0.25 0.29 0.30 0.29 0.28 0.25 0.22 0.18
0.28 0.27 0.26 0.24 0.21 0.17 0.15 0.13 0.12 0.11 0.11 0.10 0.09 0.09 0.09 0.09 0.09 0.09 0.09 0.09 0.09 0.09 0.09 0.09 0.10 0.12 0.14 0.18 0.19 0.21 0.24 0.25 0.25 0.24 0.25 0.26 0.25 0.26

GFSNE_prec_pwat_069.txt.gz
Precipitable_Water
1.09 1.21 1.14 1.12 1.10 1.12 1.07 1.02 0.91 0.83 0.92 0.99 1.00 1.09 1.07 1.09 1.00 0.97 0.89 0.79 0.76 0.73 0.72 0.71 0.69 0.68 0.66 0.65 0.61 0.56 0.53 0.49 0.47 0.46 0.46 0.46 0.48 0.50
1.11 1.12 1.14 1.14 1.13 1.13 1.06 1.07 1.12 1.03 0.92 1.12 1.08 1.11 1.09 1.03 1.01 0.97 0.87 0.82 0.78 0.73 0.69 0.67 0.65 0.64 0.61 0.54 0.50 0.45 0.41 0.39 0.40 0.41 0.41 0.42 0.43 0.43
1.07 1.07 1.08 1.13 1.06 1.07 1.13 1.15 1.15 1.16 1.04 1.10 1.16 1.17 1.07 1.06 0.95 0.92 0.91 0.85 0.80 0.76 0.70 0.69 0.67 0.60 0.51 0.46 0.40 0.35 0.35 0.34 0.34 0.34 0.35 0.37 0.36 0.36
0.99 1.03 1.04 1.09 1.05 1.08 1.12 1.09 1.19 1.17 1.05 0.97 1.08 1.07 1.04 1.02 0.93 0.87 0.89 0.83 0.82 0.75 0.73 0.66 0.60 0.49 0.43 0.36 0.30 0.29 0.30 0.31 0.34 0.36 0.37 0.35 0.35 0.35
1.00 1.03 1.07 1.08 1.06 1.09 1.18 1.16 1.16 1.18 1.14 1.03 0.97 0.98 1.03 0.99 0.90 0.95 0.88 0.85 0.79 0.72 0.63 0.58 0.50 0.40 0.33 0.30 0.31 0.31 0.31 0.33 0.34 0.37 0.36 0.36 0.34 0.33
1.04 1.06 1.07 1.04 1.00 1.01 1.11 1.15 1.16 1.14 1.11 1.02 0.96 0.97 0.94 0.91 0.95 0.86 0.78 0.78 0.73 0.67 0.54 0.46 0.42 0.40 0.37 0.36 0.35 0.35 0.37 0.40 0.43 0.40 0.38 0.35 0.35 0.34
1.09 1.12 1.08 1.07 1.06 1.04 1.08 1.11 1.12 1.09 1.07 1.00 0.93 0.91 0.87 0.89 0.84 0.85 0.76 0.71 0.63 0.60 0.54 0.48 0.45 0.45 0.42 0.41 0.40 0.42 0.44 0.47 0.44 0.41 0.37 0.35 0.35 0.34
1.07 1.10 1.13 1.14 1.14 1.18 1.17 1.21 1.17 1.08 1.02 0.96 0.92 0.85 0.87 0.84 0.84 0.78 0.71 0.63 0.56 0.58 0.49 0.48 0.48 0.42 0.41 0.40 0.44 0.45 0.44 0.42 0.39 0.37 0.36 0.34 0.33 0.33
1.04 1.11 1.17 1.22 1.23 1.21 1.20 1.15 1.09 1.05 1.06 0.99 0.86 0.84 0.84 0.84 0.80 0.73 0.67 0.61 0.55 0.51 0.49 0.42 0.41 0.38 0.45 0.46 0.45 0.44 0.43 0.41 0.39 0.37 0.36 0.33 0.32 0.31
1.08 1.09 1.14 1.16 1.19 1.13 1.09 1.02 0.95 0.92 0.92 0.87 0.84 0.84 0.81 0.79 0.73 0.68 0.62 0.58 0.54 0.47 0.44 0.39 0.45 0.45 0.46 0.45 0.45 0.44 0.42 0.39 0.38 0.36 0.36 0.34 0.31 0.30
1.05 1.05 1.05 1.05 1.05 1.04 0.99 0.92 0.88 0.90 0.84 0.89 0.86 0.81 0.80 0.76 0.69 0.62 0.51 0.42 0.45 0.44 0.45 0.43 0.44 0.42 0.44 0.44 0.42 0.40 0.40 0.39 0.38 0.37 0.37 0.36 0.33 0.31
0.93 0.92 0.93 0.94 0.93 0.94 0.91 0.85 0.78 0.77 0.77 0.74 0.72 0.70 0.65 0.59 0.49 0.47 0.50 0.45 0.41 0.41 0.45 0.43 0.43 0.41 0.37 0.40 0.39 0.39 0.37 0.36 0.36 0.38 0.37 0.37 0.33 0.32
0.82 0.79 0.80 0.83 0.83 0.83 0.82 0.81 0.77 0.74 0.73 0.70 0.63 0.59 0.58 0.57 0.54 0.50 0.45 0.43 0.42 0.42 0.44 0.42 0.40 0.39 0.37 0.34 0.35 0.35 0.34 0.31 0.31 0.33 0.39 0.38 0.35 0.33
0.78 0.77 0.75 0.76 0.76 0.77 0.77 0.77 0.74 0.70 0.67 0.62 0.56 0.53 0.50 0.47 0.46 0.46 0.46 0.45 0.44 0.41 0.41 0.41 0.38 0.37 0.34 0.32 0.30 0.31 0.31 0.32 0.30 0.30 0.34 0.37 0.36 0.34
0.78 0.75 0.74 0.74 0.73 0.72 0.70 0.68 0.66 0.63 0.59 0.55 0.51 0.50 0.50 0.48 0.46 0.45 0.45 0.44 0.42 0.41 0.39 0.38 0.35 0.34 0.32 0.29 0.28 0.29 0.27 0.27 0.26 0.23 0.29 0.33 0.35 0.33
0.74 0.72 0.73 0.71 0.67 0.65 0.64 0.62 0.59 0.57 0.54 0.51 0.49 0.47 0.47 0.45 0.43 0.42 0.39 0.38 0.35 0.34 0.34 0.33 0.32 0.31 0.29 0.28 0.27 0.25 0.25 0.18 0.18 0.18 0.26 0.35 0.34 0.38
0.68 0.67 0.64 0.62 0.59 0.58 0.56 0.55 0.52 0.49 0.47 0.45 0.43 0.42 0.41 0.40 0.38 0.37 0.35 0.32 0.30 0.29 0.29 0.30 0.30 0.28 0.26 0.23 0.20 0.18 0.16 0.16 0.17 0.19 0.20 0.31 0.31 0.34
0.62 0.59 0.57 0.55 0.53 0.51 0.49 0.47 0.45 0.44 0.43 0.41 0.39 0.37 0.35 0.33 0.32 0.32 0.31 0.29 0.27 0.26 0.25 0.23 0.21 0.20 0.18 0.18 0.18 0.16 0.17 0.20 0.23 0.23 0.25 0.29 0.26 0.31
0.54 0.52 0.50 0.49 0.47 0.46 0.44 0.42 0.40 0.39 0.37 0.36 0.34 0.33 0.31 0.30 0.28 0.27 0.25 0.22 0.20 0.19 0.18 0.17 0.15 0.14 0.12 0.11 0.14 0.19 0.17 0.17 0.16 0.16 0.24 0.31 0.26 0.28
0.49 0.46 0.44 0.43 0.42 0.40 0.39 0.38 0.37 0.35 0.33 0.31 0.29 0.27 0.23 0.21 0.18 0.17 0.16 0.15 0.14 0.13 0.12 0.12 0.12 0.12 0.12 0.12 0.11 0.12 0.13 0.12 0.15 0.18 0.23 0.29 0.33 0.33
0.43 0.42 0.41 0.39 0.38 0.36 0.35 0.33 0.31 0.28 0.23 0.21 0.19 0.18 0.17 0.15 0.13 0.13 0.13 0.12 0.12 0.11 0.11 0.11 0.12 0.13 0.12 0.12 0.11 0.11 0.14 0.16 0.18 0.19 0.25 0.26 0.27 0.27
0.38 0.37 0.35 0.34 0.31 0.27 0.23 0.21 0.19 0.17 0.16 0.14 0.13 0.13 0.12 0.12 0.11 0.11 0.11 0.10 0.10 0.10 0.10 0.11 0.11 0.11 0.11 0.11 0.10 0.11 0.12 0.14 0.17 0.22 0.27 0.27 0.27 0.23
0.30 0.26 0.23 0.20 0.19 0.17 0.15 0.14 0.13 0.12 0.12 0.11 0.11 0.11 0.11 0.10 0.10 0.10 0.10 0.11 0.10 0.10 0.10 0.10 0.11 0.12 0.11 0.11 0.11 0.11 0.12 0.13 0.17 0.22 0.26 0.32 0.32 0.29

GFSNE_prec_pwat_075.txt.gz
Precipitable_Water
1.16 1.20 1.13 1.11 1.10 1.07 1.09 1.08 0.97 0.85 0.87 1.00 1.03 1.14 1.10 1.07 1.05 1.06 1.12 1.17 1.15 1.12 1.15 1.13 1.08 1.05 1.02 0.94 0.89 0.85 0.83 0.79 0.77 0.74 0.70 0.66 0.64 0.61
1.15 1.14 1.12 1.11 1.09 1.09 1.09 1.09 1.06 0.97 0.87 1.03 1.04 1.09 1.11 1.09 1.12 1.19 1.19 1.21 1.20 1.20 1.16 1.16 1.09 1.05 1.02 0.94 0.90 0.88 0.84 0.81 0.75 0.72 0.68 0.61 0.59 0.53
1.08 1.08 1.05 1.09 1.08 1.08 1.10 1.08 1.03 1.03 0.91 0.97 1.06 1.10 1.10 1.07 1.12 1.15 1.19 1.20 1.19 1.19 1.17 1.17 1.13 1.08 1.00 0.94 0.91 0.91 0.85 0.82 0.78 0.72 0.63 0.57 0.50 0.43
0.99 1.02 1.02 1.05 1.04 1.07 1.07 1.02 1.02 1.03 0.99 0.92 1.03 1.02 1.02 1.10 1.10 1.10 1.15 1.18 1.18 1.13 1.16 1.14 1.14 1.04 0.99 0.92 0.92 0.89 0.86 0.79 0.73 0.64 0.55 0.48 0.43 0.41
0.94 0.94 0.94 0.99 0.96 0.99 1.02 1.03 1.05 1.07 1.07 1.02 0.98 1.08 1.09 1.12 1.09 1.09 1.09 1.16 1.17 1.14 1.12 1.13 1.06 1.01 0.96 0.93 0.91 0.89 0.83 0.72 0.64 0.54 0.47 0.41 0.41 0.39
0.98 1.00 1.00 0.99 0.96 0.99 1.01 1.03 1.06 1.06 1.07 1.04 1.02 1.04 1.07 1.10 1.12 1.05 0.99 1.08 1.09 1.12 1.07 1.05 1.03 1.03 0.98 0.94 0.89 0.82 0.76 0.66 0.54 0.49 0.47 0.46 0.44 0.44
0.89 0.90 0.94 1.00 1.01 1.01 1.00 0.99 1.03 1.02 1.02 0.97 0.94 0.99 1.00 0.99 1.02 1.06 1.02 1.05 1.04 1.04 0.98 0.97 0.98 0.95 0.91 0.86 0.84 0.82 0.72 0.60 0.54 0.52 0.49 0.49 0.49 0.47
0.78 0.82 0.88 0.89 0.90 0.92 0.96 0.99 1.01 0.95 0.94 0.96 0.95 0.95 0.94 0.96 1.04 1.03 0.96 0.88 0.81 0.95 0.87 0.85 0.91 0.85 0.83 0.84 0.82 0.77 0.65 0.58 0.55 0.53 0.53 0.51 0.50 0.49
0.90 0.90 0.90 0.92 0.93 0.93 0.95 0.98 1.00 1.04 1.06 1.06 0.98 0.98 0.93 0.91 0.91 0.92 0.93 0.81 0.82 0.85 0.81 0.76 0.77 0.73 0.77 0.80 0.75 0.67 0.59 0.55 0.56 0.55 0.54 0.52 0.49 0.47
1.00 1.00 0.98 0.98 1.01 1.02 1.02 1.01 1.00 1.01 1.00 1.00 0.99 0.95 0.96 0.93 0.87 0.88 0.85 0.79 0.77 0.80 0.82 0.68 0.74 0.71 0.74 0.72 0.67 0.62 0.60 0.56 0.53 0.52 0.51 0.49 0.47 0.44
1.05 1.05 1.06 1.07 1.11 1.13 1.10 1.03 1.01 0.98 0.99 0.99 0.98 0.97 0.89 0.87 0.85 0.84 0.71 0.69 0.65 0.65 0.68 0.65 0.67 0.65 0.65 0.63 0.62 0.59 0.54 0.52 0.51 0.49 0.46 0.43 0.40 0.39
1.05 1.07 1.09 1.12 1.14 1.14 1.09 1.02 0.94 0.92 0.90 0.88 0.91 0.86 0.84 0.79 0.74 0.79 0.74 0.63 0.61 0.59 0.64 0.60 0.59 0.58 0.52 0.55 0.53 0.51 0.50 0.49 0.47 0.44 0.41 0.40 0.40 0.39
0.98 0.99 1.02 1.04 1.07 1.06 1.04 0.98 0.92 0.90 0.85 0.83 0.77 0.75 0.74 0.72 0.69 0.65 0.65 0.63 0.58 0.56 0.59 0.56 0.52 0.50 0.48 0.46 0.48 0.48 0.45 0.42 0.40 0.38 0.37 0.37 0.37 0.34
0.93 0.93 0.95 0.96 0.95 0.93 0.91 0.88 0.85 0.83 0.79 0.74 0.68 0.65 0.61 0.61 0.62 0.62 0.61 0.59 0.58 0.54 0.53 0.52 0.48 0.46 0.43 0.40 0.38 0.39 0.38 0.37 0.35 0.33 0.31 0.30 0.30 0.30
0.90 0.85 0.86 0.83 0.84 0.83 0.80 0.79 0.77 0.73 0.69 0.64 0.61 0.61 0.58 0.59 0.58 0.58 0.57 0.56 0.53 0.51 0.49 0.47 0.44 0.42 0.40 0.36 0.33 0.32 0.30 0.29 0.28 0.28 0.25 0.23 0.23 0.23
0.85 0.79 0.78 0.73 0.72 0.75 0.73 0.69 0.66 0.64 0.61 0.57 0.56 0.55 0.54 0.53 0.51 0.51 0.48 0.47 0.44 0.42 0.42 0.40 0.39 0.37 0.33 0.30 0.27 0.24 0.23 0.20 0.21 0.21 0.21 0.21 0.23 0.24
0.71 0.69 0.66 0.63 0.62 0.63 0.60 0.57 0.56 0.55 0.53 0.51 0.49 0.48 0.47 0.47 0.45 0.44 0.42 0.39 0.36 0.34 0.31 0.28 0.27 0.26 0.25 0.22 0.19 0.19 0.18 0.18 0.19 0.20 0.20 0.18 0.19 0.20
0.61 0.60 0.56 0.56 0.55 0.53 0.51 0.49 0.49 0.49 0.47 0.45 0.44 0.43 0.41 0.40 0.37 0.35 0.32 0.29 0.25 0.23 0.21 0.20 0.18 0.15 0.15 0.15 0.16 0.15 0.17 0.15 0.15 0.15 0.15 0.13 0.13 0.16
0.52 0.52 0.51 0.49 0.48 0.47 0.47 0.46 0.44 0.43 0.42 0.40 0.38 0.35 0.32 0.28 0.24 0.22 0.20 0.18 0.17 0.16 0.16 0.15 0.14 0.13 0.12 0.11 0.13 0.15 0.12 0.12 0.12 0.12 0.14 0.14 0.13 0.14
0.48 0.45 0.44 0.45 0.44 0.43 0.41 0.41 0.39 0.37 0.32 0.29 0.25 0.23 0.21 0.19 0.17 0.16 0.15 0.14 0.13 0.13 0.12 0.12 0.12 0.12 0.11 0.10 0.10 0.11 0.13 0.12 0.12 0.11 0.12 0.14 0.15 0.17
0.42 0.41 0.41 0.40 0.39 0.37 0.34 0.30 0.27 0.24 0.22 0.20 0.19 0.17 0.15 0.14 0.13 0.12 0.12 0.11 0.11 0.11 0.10 0.10 0.10 0.11 0.11 0.11 0.09 0.09 0.10 0.12 0.12 0.12 0.12 0.11 0.11 0.12
0.38 0.35 0.32 0.29 0.27 0.24 0.22 0.21 0.19 0.17 0.16 0.15 0.13 0.13 0.12 0.11 0.11 0.11 0.10 0.10 0.10 0.10 0.09 0.10 0.11 0.10 0.09 0.09 0.08 0.08 0.09 0.10 0.12 0.13 0.14 0.15 0.13 0.10
0.21 0.19 0.18 0.17 0.16 0.15 0.14 0.13 0.12 0.12 0.11 0.11 0.11 0.10 0.10 0.09 0.10 0.10 0.10 0.09 0.09 0.09 0.09 0.09 0.09 0.09 0.09 0.09 0.09 0.09 0.09 0.10 0.11 0.12 0.13 0.15 0.16 0.17